Tracking 29777 objects as of 5-Oct-2024
HD Live streaming from Space Station
objects crossing your sky now

COSMOS 252 DEB *

Track COSMOS 252 DEB * now!
10-day predictions


NORAD ID: 3686
Int'l Code: 1968-097AD
Perigee: 722.4 km
Apogee: 1,715.1 km
Inclination: 62.3 °
Period: 109.7 minutes
Semi major axis: 7589 km
RCS: 0.0404 m2 (small)
Launch date: November 1, 1968
Source: Commonwealth of Independent States (former USSR) (CIS)
Launch site: TYURATAM MISSILE AND SPACE COMPLEX (TTMTR)

Note: This is SATELLITE DEBRIS
Your satellite tracking list
Your tracking list is empty




NASA's NSSDC Master Catalog

Two Line Element Set (TLE):
1 03686U 68097AD  24278.31440862  .00021721  00000-0  20211-1 0  9994
2 03686  62.2622 249.9596 0653962  34.1442 329.9877 13.12996064615051
Source of the keplerian elements: AFSPC